Date String (YYYY-MM-DD hh:mm:ss) UTC,Instrument flags,absolute air pressure of the measurement (hPa),sample flow rate (lpm),inlet stack bypass flow (lpm),air temperature of the measurement (°C),ambient temperature measured by the external sensor (°C),aerosol sample conditioner tube jacket temperature (°C),OPC LED temperature (°C),internal box temperature (°C),relative humidity of the measurement (%),span deviation,mass concentration of particles derived from Lorenz-Mie calculation of OPC scattering (μg/m³),mass concentration of particles derived from Lorenz-Mie calculation of OPC scattering (μg/m³),mass concentration of particles derived from Lorenz-Mie calculation of OPC scattering (μg/m³)
DateTimeUTC,F1_M11,P_M11,Q1_M11,Q2_M11,T1_M11,T2_M11,T3_M11,T4_M11,T5_M11,U1_M11,ZSPAN_M11,X0_M11,X2_M11,X1_M11
2024-02-15 05:00:00,SystemResetWarning,0828.5,5.01,000.00,021.1,020.5,000.0,029.7,022.9,19.5,0000.0,0010.63,0005.05,0004.57
2024-02-15 05:01:00,SystemResetWarning,0828.6,5.01,000.00,021.1,020.5,000.0,029.7,022.9,19.4,0000.0,0010.91,0005.09,0004.59
2024-02-15 05:02:00,SystemResetWarning,0828.6,5.00,000.00,021.1,020.5,000.0,029.7,022.9,19.4,0000.0,0010.73,0005.09,0004.62
2024-02-15 05:03:00,SystemResetWarning,0828.7,4.99,000.00,021.1,020.5,000.0,029.6,022.9,19.4,0000.0,0010.93,0005.13,0004.63
2024-02-15 05:04:00,SystemResetWarning,0828.7,4.99,000.00,021.0,020.5,000.0,029.6,022.9,19.4,0000.0,0010.61,0005.18,0004.65
2024-02-15 05:05:00,SystemResetWarning,0828.6,5.01,000.00,021.0,020.4,000.0,029.6,022.9,19.3,0000.0,0010.59,0005.19,0004.67
2024-02-15 05:06:00,SystemResetWarning,0828.6,5.01,000.00,021.0,020.4,000.0,029.6,022.9,19.3,0000.0,0010.83,0005.18,0004.68
2024-02-15 05:07:00,SystemResetWarning,0828.5,5.00,000.00,021.0,020.4,000.0,029.6,022.9,19.4,0000.0,0010.74,0005.17,0004.69
2024-02-15 05:08:00,SystemResetWarning,0828.6,4.98,000.00,021.0,020.4,000.0,029.6,022.9,19.5,0000.0,0010.77,0005.19,0004.71
2024-02-15 05:09:00,SystemResetWarning,0828.6,5.00,000.00,021.0,020.4,000.0,029.6,022.8,19.5,0000.0,0010.89,0005.23,0004.72
2024-02-15 05:10:00,SystemResetWarning,0828.7,5.01,000.00,021.0,020.3,000.0,029.6,022.8,19.6,0000.0,0010.94,0005.29,0004.73
2024-02-15 05:11:00,SystemResetWarning,0828.6,5.01,000.00,021.0,020.3,000.0,029.6,022.7,19.6,0000.0,0010.19,0005.29,0004.74
2024-02-15 05:12:00,SystemResetWarning,0828.5,4.99,000.00,020.9,020.3,000.0,029.5,022.7,19.7,0000.0,0009.85,0005.31,0004.75
2024-02-15 05:13:00,SystemResetWarning,0828.4,4.98,000.00,020.9,020.3,000.0,029.5,022.6,19.7,0000.0,0009.88,0005.35,0004.76
2024-02-15 05:14:00,SystemResetWarning,0828.4,5.02,000.00,020.9,020.2,000.0,029.5,022.6,19.8,0000.0,0010.36,0005.35,0004.77
2024-02-15 05:15:00,SystemResetWarning,0828.6,5.01,000.00,020.8,020.2,000.0,029.5,022.6,19.8,0000.0,0010.01,0005.34,0004.78
2024-02-15 05:16:00,SystemResetWarning,0828.7,4.99,000.00,020.8,020.2,000.0,029.5,022.6,19.8,0000.0,0010.71,0005.35,0004.79
2024-02-15 05:17:00,SystemResetWarning,0828.8,4.99,000.00,020.8,020.2,000.0,029.5,022.6,19.8,0000.0,0010.62,0005.35,0004.81
2024-02-15 05:18:00,SystemResetWarning,0828.7,5.00,000.00,020.8,020.1,000.0,029.5,022.6,19.7,0000.0,0010.60,0005.35,0004.82
2024-02-15 05:19:00,SystemResetWarning,0828.7,5.01,000.00,020.8,020.1,000.0,029.4,022.6,19.7,0000.0,0010.81,0005.35,0004.82
2024-02-15 05:20:00,SystemResetWarning,0828.8,5.00,000.00,020.8,020.1,000.0,029.4,022.6,19.7,0000.0,0010.69,0005.34,0004.85
2024-02-15 05:21:00,SystemResetWarning,0828.8,5.00,000.00,020.8,020.1,000.0,029.4,022.6,19.6,0000.0,0010.37,0005.33,0004.86
2024-02-15 05:22:00,SystemResetWarning,0829.0,4.99,000.00,020.8,020.2,000.0,029.4,022.6,19.5,0000.0,0010.20,0005.35,0004.88
2024-02-15 05:23:00,SystemResetWarning,0829.0,5.00,000.00,020.8,020.2,000.0,029.4,022.6,19.5,0000.0,0010.00,0005.32,0004.89
2024-02-15 05:24:00,SystemResetWarning,0828.8,5.00,000.00,020.8,020.2,000.0,029.4,022.7,19.5,0000.0,0009.94,0005.32,0004.89
2024-02-15 05:25:00,SystemResetWarning,0828.8,5.00,000.00,020.8,020.2,000.0,029.4,022.6,19.4,0000.0,0009.43,0005.33,0004.91
2024-02-15 05:26:00,SystemResetWarning,0828.6,4.99,000.00,020.8,020.2,000.0,029.4,022.6,19.4,0000.0,0009.13,0005.30,0004.90
2024-02-15 05:27:00,SystemResetWarning,0828.6,5.01,000.00,020.8,020.2,000.0,029.4,022.6,19.4,0000.0,0008.46,0005.28,0004.89
2024-02-15 05:28:00,SystemResetWarning,0828.6,5.01,000.00,020.8,020.2,000.0,029.3,022.6,19.4,0000.0,0008.04,0005.26,0004.88
2024-02-15 05:29:00,SystemResetWarning,0828.6,5.00,000.00,020.8,020.2,000.0,029.3,022.6,19.5,0000.0,0008.07,0005.27,0004.87
2024-02-15 05:30:00,SystemResetWarning,0828.6,4.99,000.00,020.8,020.2,000.0,029.3,022.6,19.4,0000.0,0008.21,0005.27,0004.86
2024-02-15 05:31:00,SystemResetWarning,0828.6,5.00,000.00,020.8,020.1,000.0,029.3,022.6,19.4,0000.0,0009.25,0005.26,0004.84
2024-02-15 05:32:00,SystemResetWarning,0828.7,5.00,000.00,020.7,020.1,000.0,029.3,022.5,19.4,0000.0,0010.12,0005.25,0004.83
2024-02-15 05:33:00,SystemResetWarning,0828.9,5.00,000.00,020.7,020.1,000.0,029.3,022.5,19.4,0000.0,0010.08,0005.24,0004.82
2024-02-15 05:34:00,SystemResetWarning,0829.0,5.00,000.00,020.7,020.1,000.0,029.3,022.5,19.3,0000.0,0010.52,0005.25,0004.82
2024-02-15 05:35:00,SystemResetWarning,0829.0,5.00,000.00,020.7,020.1,000.0,029.3,022.5,19.3,0000.0,0010.84,0005.24,0004.82
2024-02-15 05:36:00,SystemResetWarning,0828.9,5.00,000.00,020.7,020.1,000.0,029.3,022.5,19.3,0000.0,0011.12,0005.25,0004.80
2024-02-15 05:37:00,SystemResetWarning,0829.0,5.00,000.00,020.7,020.1,000.0,029.3,022.6,19.3,0000.0,0011.17,0005.25,0004.80
2024-02-15 05:38:00,SystemResetWarning,0829.0,5.01,000.00,020.7,020.1,000.0,029.3,022.5,19.3,0000.0,0011.27,0005.26,0004.82
2024-02-15 05:39:00,SystemResetWarning,0829.0,5.01,000.00,020.7,020.1,000.0,029.2,022.5,19.4,0000.0,0011.94,0005.28,0004.83
2024-02-15 05:40:00,SystemResetWarning,0828.9,5.00,000.00,020.7,020.1,000.0,029.2,022.6,19.3,0000.0,0013.12,0005.32,0004.85
2024-02-15 05:41:00,SystemResetWarning,0828.8,5.00,000.00,020.7,020.1,000.0,029.2,022.6,19.3,0000.0,0013.22,0005.34,0004.88
2024-02-15 05:42:00,SystemResetWarning,0828.8,4.99,000.00,020.7,020.1,000.0,029.2,022.6,19.4,0000.0,0012.30,0005.36,0004.90
2024-02-15 05:43:00,SystemResetWarning,0828.9,5.00,000.00,020.7,020.1,000.0,029.3,022.6,19.4,0000.0,0011.18,0005.37,0004.91
2024-02-15 05:44:00,SystemResetWarning,0828.8,5.00,000.00,020.7,020.1,000.0,029.2,022.5,19.3,0000.0,0011.23,0005.41,0004.93
2024-02-15 05:45:00,SystemResetWarning,0828.7,4.99,000.00,020.7,020.1,000.0,029.2,022.5,19.3,0000.0,0010.82,0005.41,0004.94
2024-02-15 05:46:00,SystemResetWarning,0828.8,5.01,000.00,020.7,020.1,000.0,029.2,022.6,19.2,0000.0,0010.48,0005.43,0004.96
2024-02-15 05:47:00,SystemResetWarning,0828.8,5.01,000.00,020.7,020.1,000.0,029.2,022.5,19.2,0000.0,0010.10,0005.40,0004.97
2024-02-15 05:48:00,SystemResetWarning,0828.8,5.01,000.00,020.7,020.1,000.0,029.2,022.5,19.2,0000.0,0010.05,0005.39,0004.98
2024-02-15 05:49:00,SystemResetWarning,0828.7,4.99,000.00,020.6,020.0,000.0,029.2,022.5,19.2,0000.0,0009.99,0005.41,0005.00
2024-02-15 05:50:00,SystemResetWarning,0828.7,5.00,000.00,020.6,020.0,000.0,029.2,022.5,19.3,0000.0,0009.47,0005.45,0005.02
2024-02-15 05:51:00,SystemResetWarning,0828.9,5.00,000.00,020.6,020.0,000.0,029.2,022.5,19.3,0000.0,0008.39,0005.45,0005.03
2024-02-15 05:52:00,SystemResetWarning,0829.0,5.00,000.00,020.6,020.0,000.0,029.2,022.5,19.2,0000.0,0007.97,0005.43,0005.04
2024-02-15 05:53:00,SystemResetWarning,0829.0,5.00,000.00,020.6,020.0,000.0,029.2,022.5,19.3,0000.0,0007.95,0005.43,0005.04
2024-02-15 05:54:00,SystemResetWarning,0828.8,5.01,000.00,020.6,020.0,000.0,029.2,022.5,19.2,0000.0,0008.05,0005.45,0005.05
2024-02-15 05:55:00,SystemResetWarning,0828.7,5.00,000.00,020.6,020.0,000.0,029.2,022.5,19.2,0000.0,0007.94,0005.41,0005.06
2024-02-15 05:56:00,SystemResetWarning,0828.7,4.98,000.00,020.6,020.0,000.0,029.2,022.5,19.3,0000.0,0007.97,0005.41,0005.06
2024-02-15 05:57:00,SystemResetWarning,0828.7,5.01,000.00,020.6,020.0,000.0,029.2,022.5,19.3,0000.0,0008.18,0005.42,0005.06
2024-02-15 05:58:00,SystemResetWarning,0828.7,5.01,000.00,020.6,020.0,000.0,029.2,022.5,19.3,0000.0,0008.27,0005.45,0005.07
2024-02-15 05:59:00,SystemResetWarning,0828.8,5.00,000.00,020.6,020.0,000.0,029.2,022.5,19.3,0000.0,0008.31,0005.47,0005.08
